Wetterdaten: Mittwoch, 07.08.2013
Datum Zeit Temperatur Luftfeuchte Luftdruck Regen Wind Richtung Richtung Taupunkt Windchill Windben
07.08.2013 00:00 14,6 C 94 % 1020,6 hPa 0,0 l/m 0,0 km/h (0 Bft) O-SO 112 13,6 C 14,4 C 0,0 km/h (0 Bft)
07.08.2013 00:05 14,5 C 94 % 1020,4 hPa 0,0 l/m 0,0 km/h (0 Bft) S-SW 202 13,5 C 14,4 C 0,0 km/h (0 Bft)
07.08.2013 00:10 14,5 C 94 % 1020,4 hPa 0,0 l/m 0,0 km/h (0 Bft) SO 135 13,5 C 14,4 C 0,0 km/h (0 Bft)
07.08.2013 00:15 14,5 C 94 % 1020,4 hPa 0,0 l/m 0,0 km/h (0 Bft) W-SW 247 13,5 C 14,4 C 0,0 km/h (0 Bft)
07.08.2013 00:20 14,6 C 94 % 1020,4 hPa 0,0 l/m 0,0 km/h (0 Bft) S 180 13,6 C 14,4 C 0,0 km/h (0 Bft)
07.08.2013 00:25 14,6 C 94 % 1020,4 hPa 0,0 l/m 0,0 km/h (0 Bft) O 90 13,6 C 14,4 C 0,0 km/h (0 Bft)
07.08.2013 00:30 14,6 C 94 % 1020,4 hPa 0,0 l/m 0,0 km/h (0 Bft) W-NW 292 13,6 C 14,4 C 0,0 km/h (0 Bft)
07.08.2013 00:35 14,5 C 94 % 1020,4 hPa 0,0 l/m 0,0 km/h (0 Bft) W-SW 247 13,5 C 14,4 C 0,0 km/h (0 Bft)
07.08.2013 00:40 14,5 C 94 % 1020,4 hPa 0,0 l/m 0,0 km/h (0 Bft) NO 45 13,5 C 14,4 C 0,0 km/h (0 Bft)
07.08.2013 00:45 14,4 C 94 % 1020,1 hPa 0,0 l/m 0,0 km/h (0 Bft) W-NW 292 13,4 C 14,4 C 0,0 km/h (0 Bft)
07.08.2013 00:50 14,5 C 94 % 1020,1 hPa 0,0 l/m 0,2 km/h (0 Bft) N-NO 22 13,5 C 14,5 C 0,0 km/h (0 Bft)
07.08.2013 00:55 14,6 C 94 % 1020,1 hPa 0,0 l/m 0,5 km/h (0 Bft) S-SW 202 13,6 C 14,5 C 2,9 km/h (1 Bft)
07.08.2013 01:00 14,7 C 94 % 1020,1 hPa 0,0 l/m 1,0 km/h (0 Bft) NW 315 13,7 C 14,6 C 3,5 km/h (1 Bft)
07.08.2013 01:05 14,8 C 94 % 1019,9 hPa 0,0 l/m 1,3 km/h (1 Bft) S 180 13,8 C 14,8 C 0,0 km/h (0 Bft)
07.08.2013 01:10 14,9 C 94 % 1019,9 hPa 0,0 l/m 1,1 km/h (1 Bft) W-NW 292 13,9 C 14,8 C 3,9 km/h (1 Bft)
07.08.2013 01:15 14,9 C 94 % 1019,9 hPa 0,0 l/m 1,3 km/h (1 Bft) N-NO 22 13,9 C 14,9 C 3,1 km/h (1 Bft)
07.08.2013 01:20 14,9 C 94 % 1019,9 hPa 0,0 l/m 1,4 km/h (1 Bft) O 90 13,9 C 14,9 C 5,0 km/h (1 Bft)
07.08.2013 01:25 14,9 C 94 % 1019,6 hPa 0,0 l/m 1,1 km/h (1 Bft) N-NW 337 13,9 C 14,9 C 3,7 km/h (1 Bft)
07.08.2013 01:30 14,9 C 94 % 1019,6 hPa 0,0 l/m 1,0 km/h (0 Bft) NW 315 13,9 C 14,8 C 1,8 km/h (1 Bft)
07.08.2013 01:35 14,7 C 94 % 1019,6 hPa 0,0 l/m 0,6 km/h (0 Bft) NO 45 13,7 C 14,8 C 0,0 km/h (0 Bft)
07.08.2013 01:40 14,7 C 94 % 1019,6 hPa 0,0 l/m 0,6 km/h (0 Bft) N-NO 22 13,7 C 14,7 C 0,0 km/h (0 Bft)
07.08.2013 01:45 14,6 C 94 % 1019,1 hPa 0,0 l/m 1,1 km/h (1 Bft) N 360 13,6 C 14,7 C 5,0 km/h (1 Bft)
07.08.2013 01:50 14,7 C 94 % 1019,1 hPa 0,0 l/m 1,0 km/h (0 Bft) O 90 13,7 C 14,8 C 0,0 km/h (0 Bft)
07.08.2013 01:55 14,7 C 94 % 1019,1 hPa 0,0 l/m 1,1 km/h (1 Bft) NO 45 13,7 C 14,7 C 2,7 km/h (1 Bft)
07.08.2013 02:00 14,7 C 94 % 1019,1 hPa 0,0 l/m 1,3 km/h (1 Bft) NO 45 13,7 C 14,7 C 3,5 km/h (1 Bft)
07.08.2013 02:05 14,7 C 94 % 1018,8 hPa 0,0 l/m 1,8 km/h (1 Bft) S 180 13,7 C 14,8 C 1,6 km/h (1 Bft)
07.08.2013 02:10 14,6 C 94 % 1018,8 hPa 0,0 l/m 1,3 km/h (1 Bft) NO 45 13,6 C 14,7 C 2,7 km/h (1 Bft)
07.08.2013 02:15 14,7 C 95 % 1018,8 hPa 0,0 l/m 0,5 km/h (0 Bft) NO 45 13,9 C 14,6 C 0,0 km/h (0 Bft)
07.08.2013 02:20 14,6 C 95 % 1018,8 hPa 0,0 l/m 0,8 km/h (0 Bft) O-NO 67 13,8 C 14,6 C 2,9 km/h (1 Bft)
07.08.2013 02:25 14,5 C 95 % 1018,5 hPa 0,0 l/m 0,8 km/h (0 Bft) O-NO 67 13,7 C 14,5 C 1,8 km/h (1 Bft)
07.08.2013 02:30 14,3 C 95 % 1018,5 hPa 0,0 l/m 0,5 km/h (0 Bft) NO 45 13,5 C 14,4 C 0,0 km/h (0 Bft)
07.08.2013 02:35 14,3 C 94 % 1018,5 hPa 0,0 l/m 0,3 km/h (0 Bft) O 90 13,3 C 14,4 C 0,0 km/h (0 Bft)
07.08.2013 02:40 14,2 C 94 % 1018,5 hPa 0,0 l/m 0,3 km/h (0 Bft) N 360 13,2 C 14,4 C 0,0 km/h (0 Bft)
07.08.2013 02:45 14,2 C 94 % 1018,4 hPa 0,0 l/m 0,3 km/h (0 Bft) W-SW 247 13,2 C 14,2 C 1,8 km/h (1 Bft)
07.08.2013 02:50 14,2 C 94 % 1018,4 hPa 0,0 l/m 0,5 km/h (0 Bft) S 180 13,2 C 14,3 C 0,0 km/h (0 Bft)
07.08.2013 02:55 14,2 C 94 % 1018,4 hPa 0,0 l/m 0,6 km/h (0 Bft) O-NO 67 13,2 C 14,2 C 2,6 km/h (1 Bft)
07.08.2013 03:00 14,2 C 94 % 1018,4 hPa 0,0 l/m 0,3 km/h (0 Bft) S 180 13,2 C 14,2 C 0,0 km/h (0 Bft)
07.08.2013 03:05 14,1 C 95 % 1018,4 hPa 0,0 l/m 0,3 km/h (0 Bft) NO 45 13,3 C 14,1 C 0,0 km/h (0 Bft)
07.08.2013 03:10 14,2 C 95 % 1018,4 hPa 0,0 l/m 0,2 km/h (0 Bft) O-SO 112 13,4 C 14,0 C 2,1 km/h (1 Bft)
07.08.2013 03:15 14,3 C 95 % 1018,4 hPa 0,0 l/m 0,8 km/h (0 Bft) O-NO 67 13,5 C 14,0 C 2,6 km/h (1 Bft)
07.08.2013 03:20 14,1 C 94 % 1018,4 hPa 0,0 l/m 1,1 km/h (1 Bft) N 360 13,1 C 14,1 C 0,0 km/h (0 Bft)
07.08.2013 03:25 14,0 C 95 % 1018,4 hPa 0,0 l/m 0,6 km/h (0 Bft) S-SW 202 13,2 C 14,1 C 2,6 km/h (1 Bft)
07.08.2013 03:30 14,0 C 95 % 1018,4 hPa 0,0 l/m 0,5 km/h (0 Bft) W 270 13,2 C 14,0 C 1,6 km/h (1 Bft)
07.08.2013 03:35 13,9 C 95 % 1018,4 hPa 0,0 l/m 0,5 km/h (0 Bft) W-SW 247 13,1 C 14,1 C 0,0 km/h (0 Bft)
07.08.2013 03:40 13,9 C 95 % 1018,4 hPa 0,0 l/m 0,6 km/h (0 Bft) W-SW 247 13,1 C 14,1 C 1,9 km/h (1 Bft)
07.08.2013 03:45 13,9 C 95 % 1018,2 hPa 0,0 l/m 0,8 km/h (0 Bft) SW 225 13,1 C 14,1 C 0,0 km/h (0 Bft)
07.08.2013 03:50 14,0 C 95 % 1018,2 hPa 0,0 l/m 1,0 km/h (0 Bft) S 180 13,2 C 14,1 C 0,0 km/h (0 Bft)
07.08.2013 03:55 14,1 C 95 % 1018,2 hPa 0,0 l/m 1,0 km/h (0 Bft) W 270 13,3 C 14,1 C 0,0 km/h (0 Bft)
07.08.2013 04:00 14,1 C 95 % 1018,2 hPa 0,0 l/m 1,0 km/h (0 Bft) O-NO 67 13,3 C 14,1 C 1,9 km/h (1 Bft)
07.08.2013 04:05 14,0 C 95 % 1017,7 hPa 0,0 l/m 1,3 km/h (1 Bft) S 180 13,2 C 14,2 C 0,0 km/h (0 Bft)
07.08.2013 04:10 14,0 C 95 % 1017,7 hPa 0,0 l/m 1,3 km/h (1 Bft) N-NW 337 13,2 C 14,1 C 6,1 km/h (2 Bft)
07.08.2013 04:15 14,0 C 95 % 1017,7 hPa 0,0 l/m 0,6 km/h (0 Bft) W-SW 247 13,2 C 14,1 C 3,4 km/h (1 Bft)
07.08.2013 04:20 14,0 C 95 % 1017,7 hPa 0,0 l/m 1,6 km/h (1 Bft) S 180 13,2 C 14,1 C 3,1 km/h (1 Bft)
07.08.2013 04:25 14,1 C 95 % 1017,2 hPa 0,0 l/m 2,4 km/h (1 Bft) NO 45 13,3 C 14,2 C 2,4 km/h (1 Bft)
07.08.2013 04:30 14,2 C 95 % 1017,2 hPa 0,0 l/m 4,0 km/h (1 Bft) NO 45 13,4 C 14,3 C 10,5 km/h (2 Bft)
07.08.2013 04:35 14,2 C 95 % 1017,2 hPa 0,0 l/m 3,9 km/h (1 Bft) N-NO 22 13,4 C 14,3 C 4,5 km/h (1 Bft)
07.08.2013 04:40 14,2 C 95 % 1017,2 hPa 0,0 l/m 3,4 km/h (1 Bft) O-NO 67 13,4 C 14,3 C 12,6 km/h (3 Bft)
07.08.2013 04:45 14,1 C 95 % 1017,1 hPa 0,0 l/m 3,2 km/h (1 Bft) NW 315 13,3 C 14,3 C 2,7 km/h (1 Bft)
07.08.2013 04:50 13,9 C 95 % 1017,1 hPa 0,0 l/m 2,3 km/h (1 Bft) N-NO 22 13,1 C 14,2 C 2,9 km/h (1 Bft)
07.08.2013 04:55 13,9 C 95 % 1017,1 hPa 0,0 l/m 1,8 km/h (1 Bft) O-NO 67 13,1 C 14,2 C 2,1 km/h (1 Bft)
07.08.2013 05:00 13,8 C 95 % 1017,1 hPa 0,0 l/m 1,4 km/h (1 Bft) S 180 13,0 C 14,1 C 2,6 km/h (1 Bft)
07.08.2013 05:05 13,8 C 95 % 1016,9 hPa 0,0 l/m 1,4 km/h (1 Bft) N-NO 22 13,0 C 14,1 C 2,7 km/h (1 Bft)
07.08.2013 05:10 13,7 C 95 % 1016,9 hPa 0,0 l/m 1,1 km/h (1 Bft) SO 135 12,9 C 14,1 C 0,0 km/h (0 Bft)
07.08.2013 05:15 13,8 C 95 % 1016,9 hPa 0,0 l/m 0,6 km/h (0 Bft) S-SW 202 13,0 C 14,0 C 0,0 km/h (0 Bft)
07.08.2013 05:20 13,7 C 95 % 1016,9 hPa 0,0 l/m 0,3 km/h (0 Bft) S 180 12,9 C 13,9 C 0,0 km/h (0 Bft)
07.08.2013 05:25 13,7 C 95 % 1016,6 hPa 0,0 l/m 0,2 km/h (0 Bft) S-SO 157 12,9 C 13,9 C 0,0 km/h (0 Bft)
07.08.2013 05:30 13,8 C 95 % 1016,6 hPa 0,0 l/m 0,2 km/h (0 Bft) O-NO 67 13,0 C 13,8 C 0,0 km/h (0 Bft)
07.08.2013 05:35 13,7 C 95 % 1016,6 hPa 0,0 l/m 0,3 km/h (0 Bft) W 270 12,9 C 13,8 C 0,0 km/h (0 Bft)
07.08.2013 05:40 13,6 C 95 % 1016,6 hPa 0,0 l/m 0,3 km/h (0 Bft) W-SW 247 12,8 C 13,7 C 0,0 km/h (0 Bft)
07.08.2013 05:45 13,6 C 95 % 1016,7 hPa 0,0 l/m 0,6 km/h (0 Bft) N-NO 22 12,8 C 13,7 C 2,3 km/h (1 Bft)
07.08.2013 05:50 13,7 C 95 % 1016,7 hPa 0,0 l/m 1,3 km/h (1 Bft) NO 45 12,9 C 13,7 C 3,1 km/h (1 Bft)
07.08.2013 05:55 13,8 C 95 % 1016,7 hPa 0,0 l/m 1,6 km/h (1 Bft) N 360 13,0 C 13,7 C 2,9 km/h (1 Bft)
07.08.2013 06:00 13,9 C 95 % 1016,7 hPa 0,0 l/m 1,8 km/h (1 Bft) S-SO 157 13,1 C 13,8 C 2,4 km/h (1 Bft)
07.08.2013 06:05 13,9 C 95 % 1016,5 hPa 0,0 l/m 1,4 km/h (1 Bft) S-SO 157 13,1 C 13,9 C 1,8 km/h (1 Bft)
07.08.2013 06:10 14,0 C 95 % 1016,5 hPa 0,0 l/m 0,5 km/h (0 Bft) NO 45 13,2 C 13,9 C 2,1 km/h (1 Bft)
07.08.2013 06:15 14,0 C 95 % 1016,5 hPa 0,0 l/m 0,5 km/h (0 Bft) NW 315 13,2 C 14,0 C 2,7 km/h (1 Bft)
07.08.2013 06:20 14,1 C 95 % 1016,5 hPa 0,0 l/m 1,0 km/h (0 Bft) S-SO 157 13,3 C 14,1 C 0,0 km/h (0 Bft)
07.08.2013 06:25 14,2 C 95 % 1016,3 hPa 0,0 l/m 0,8 km/h (0 Bft) O-NO 67 13,4 C 14,2 C 2,6 km/h (1 Bft)
07.08.2013 06:30 14,3 C 95 % 1016,3 hPa 0,0 l/m 0,6 km/h (0 Bft) O 90 13,5 C 14,4 C 0,0 km/h (0 Bft)
07.08.2013 06:35 14,3 C 95 % 1016,3 hPa 0,0 l/m 0,8 km/h (0 Bft) O 90 13,5 C 14,4 C 0,0 km/h (0 Bft)
07.08.2013 06:40 14,1 C 95 % 1016,3 hPa 0,0 l/m 0,3 km/h (0 Bft) S 180 13,3 C 14,4 C 0,0 km/h (0 Bft)
07.08.2013 06:45 14,0 C 95 % 1016,0 hPa 0,0 l/m 0,0 km/h (0 Bft) SO 135 13,2 C 14,4 C 0,0 km/h (0 Bft)
07.08.2013 06:50 13,9 C 95 % 1016,0 hPa 0,0 l/m 0,0 km/h (0 Bft) N 360 13,1 C 14,2 C 0,0 km/h (0 Bft)
07.08.2013 06:55 14,0 C 95 % 1016,0 hPa 0,0 l/m 0,0 km/h (0 Bft) O-SO 112 13,2 C 14,1 C 0,0 km/h (0 Bft)
07.08.2013 07:00 14,2 C 95 % 1016,0 hPa 0,0 l/m 0,2 km/h (0 Bft) O 90 13,4 C 14,3 C 0,0 km/h (0 Bft)
07.08.2013 07:05 14,4 C 95 % 1015,9 hPa 0,0 l/m 0,5 km/h (0 Bft) NO 45 13,6 C 14,5 C 1,9 km/h (1 Bft)
07.08.2013 07:10 14,5 C 95 % 1015,9 hPa 0,0 l/m 0,8 km/h (0 Bft) O-NO 67 13,7 C 14,7 C 0,0 km/h (0 Bft)
07.08.2013 07:15 14,6 C 95 % 1015,9 hPa 0,0 l/m 0,5 km/h (0 Bft) S 180 13,8 C 14,8 C 0,0 km/h (0 Bft)
07.08.2013 07:20 14,5 C 95 % 1015,9 hPa 0,0 l/m 0,0 km/h (0 Bft) O 90 13,7 C 14,7 C 0,0 km/h (0 Bft)
07.08.2013 07:25 14,5 C 95 % 1015,7 hPa 0,0 l/m 0,3 km/h (0 Bft) O 90 13,7 C 14,7 C 2,3 km/h (1 Bft)
07.08.2013 07:30 14,6 C 95 % 1015,7 hPa 0,0 l/m 0,6 km/h (0 Bft) NO 45 13,8 C 14,9 C 0,0 km/h (0 Bft)
07.08.2013 07:35 14,7 C 95 % 1015,7 hPa 0,0 l/m 0,5 km/h (0 Bft) O-SO 112 13,9 C 15,0 C 0,0 km/h (0 Bft)
07.08.2013 07:40 14,8 C 95 % 1015,7 hPa 0,0 l/m 0,0 km/h (0 Bft) S-SW 202 14,0 C 15,2 C 0,0 km/h (0 Bft)
07.08.2013 07:45 15,0 C 95 % 1016,0 hPa 0,0 l/m 0,0 km/h (0 Bft) W 270 14,2 C 15,4 C 0,0 km/h (0 Bft)
07.08.2013 07:50 15,3 C 95 % 1016,0 hPa 0,0 l/m 0,2 km/h (0 Bft) W-SW 247 14,5 C 15,7 C 0,0 km/h (0 Bft)
07.08.2013 07:55 16,7 C 94 % 1016,0 hPa 0,0 l/m 0,2 km/h (0 Bft) O-SO 112 15,7 C 16,4 C 2,1 km/h (1 Bft)
07.08.2013 08:00 17,0 C 93 % 1016,0 hPa 0,0 l/m 0,3 km/h (0 Bft) O-SO 112 15,9 C 17,7 C 0,0 km/h (0 Bft)
07.08.2013 08:05 16,4 C 93 % 1016,6 hPa 0,0 l/m 0,3 km/h (0 Bft) N-NO 22 15,3 C 18,5 C 0,0 km/h (0 Bft)
07.08.2013 08:10 16,0 C 93 % 1016,6 hPa 0,0 l/m 0,3 km/h (0 Bft) O 90 14,9 C 18,3 C 3,1 km/h (1 Bft)
07.08.2013 08:15 16,1 C 93 % 1016,6 hPa 0,0 l/m 1,4 km/h (1 Bft) SO 135 15,0 C 18,0 C 2,6 km/h (1 Bft)
07.08.2013 08:20 16,6 C 93 % 1016,6 hPa 0,0 l/m 1,4 km/h (1 Bft) SO 135 15,5 C 18,0 C 0,0 km/h (0 Bft)
07.08.2013 08:25 17,5 C 93 % 1016,4 hPa 0,0 l/m 1,1 km/h (1 Bft) S 180 16,4 C 18,4 C 4,7 km/h (1 Bft)
07.08.2013 08:30 18,5 C 93 % 1016,4 hPa 0,0 l/m 6,8 km/h (2 Bft) S 180 17,3 C 18,9 C 18,8 km/h (3 Bft)
07.08.2013 08:35 17,8 C 92 % 1016,4 hPa 0,0 l/m 9,0 km/h (2 Bft) S 180 16,5 C 18,6 C 9,2 km/h (2 Bft)
07.08.2013 08:40 19,0 C 90 % 1016,4 hPa 0,0 l/m 9,8 km/h (2 Bft) S 180 17,3 C 18,2 C 19,6 km/h (3 Bft)
07.08.2013 08:45 19,0 C 87 % 1018,9 hPa 0,0 l/m 11,1 km/h (2 Bft) S 180 16,8 C 18,4 C 15,8 km/h (3 Bft)
07.08.2013 08:50 18,4 C 84 % 1018,9 hPa 0,0 l/m 13,7 km/h (3 Bft) S-SW 202 15,6 C 17,5 C 27,7 km/h (4 Bft)
07.08.2013 08:55 18,0 C 84 % 1018,9 hPa 0,0 l/m 14,0 km/h (3 Bft) S 180 15,3 C 16,9 C 14,3 km/h (3 Bft)
07.08.2013 09:00 17,8 C 84 % 1018,9 hPa 0,0 l/m 14,3 km/h (3 Bft) SW 225 15,1 C 16,2 C 14,2 km/h (3 Bft)
07.08.2013 09:05 17,7 C 85 % 1019,1 hPa 0,0 l/m 14,2 km/h (3 Bft) S 180 15,1 C 16,0 C 24,0 km/h (4 Bft)
07.08.2013 09:10 17,3 C 86 % 1019,1 hPa 0,0 l/m 12,2 km/h (2 Bft) S-SO 157 14,9 C 16,0 C 10,8 km/h (2 Bft)
07.08.2013 09:15 17,1 C 87 % 1019,1 hPa 0,0 l/m 9,0 km/h (2 Bft) SO 135 14,9 C 16,8 C 6,6 km/h (2 Bft)
07.08.2013 09:20 17,0 C 88 % 1019,1 hPa 0,0 l/m 5,0 km/h (1 Bft) S-SW 202 15,0 C 17,7 C 1,8 km/h (1 Bft)
07.08.2013 09:25 16,9 C 89 % 1019,1 hPa 0,0 l/m 3,1 km/h (1 Bft) W-SW 247 15,1 C 17,7 C 2,6 km/h (1 Bft)
07.08.2013 09:30 16,9 C 89 % 1019,1 hPa 0,0 l/m 1,4 km/h (1 Bft) W-SW 247 15,1 C 17,6 C 0,0 km/h (0 Bft)
07.08.2013 09:35 16,8 C 89 % 1019,1 hPa 0,0 l/m 1,1 km/h (1 Bft) NO 45 15,0 C 17,5 C 2,6 km/h (1 Bft)
07.08.2013 09:40 16,8 C 89 % 1019,1 hPa 0,0 l/m 1,1 km/h (1 Bft) N 360 15,0 C 17,2 C 2,7 km/h (1 Bft)
07.08.2013 09:45 16,7 C 89 % 1018,9 hPa 0,0 l/m 2,1 km/h (1 Bft) N-NO 22 14,9 C 17,2 C 4,3 km/h (1 Bft)
07.08.2013 09:50 16,6 C 89 % 1018,9 hPa 0,0 l/m 4,5 km/h (1 Bft) N-NO 22 14,8 C 16,9 C 10,8 km/h (2 Bft)
07.08.2013 09:55 16,6 C 89 % 1018,9 hPa 0,0 l/m 5,8 km/h (2 Bft) N-NW 337 14,8 C 16,8 C 5,8 km/h (2 Bft)
07.08.2013 10:00 16,9 C 90 % 1018,9 hPa 0,0 l/m 5,8 km/h (2 Bft) W-NW 292 15,2 C 16,8 C 6,1 km/h (2 Bft)
07.08.2013 10:05 17,2 C 89 % 1017,4 hPa 0,0 l/m 5,0 km/h (1 Bft) N 360 15,4 C 16,9 C 4,2 km/h (1 Bft)
07.08.2013 10:10 17,5 C 85 % 1017,4 hPa 0,0 l/m 7,7 km/h (2 Bft) N-NO 22 14,9 C 16,9 C 31,5 km/h (5 Bft)
07.08.2013 10:15 19,8 C 78 % 1017,4 hPa 0,0 l/m 10,6 km/h (2 Bft) N-NW 337 15,8 C 16,2 C 15,1 km/h (3 Bft)
07.08.2013 10:20 18,0 C 80 % 1017,4 hPa 0,0 l/m 10,5 km/h (2 Bft) NO 45 14,5 C 17,0 C 13,5 km/h (3 Bft)
07.08.2013 10:25 17,7 C 83 % 1016,8 hPa 0,0 l/m 7,9 km/h (2 Bft) S 180 14,8 C 17,6 C 4,5 km/h (1 Bft)
07.08.2013 10:30 18,0 C 85 % 1016,8 hPa 0,0 l/m 4,0 km/h (1 Bft) N-NW 337 15,4 C 18,3 C 6,3 km/h (2 Bft)
07.08.2013 10:35 18,5 C 87 % 1016,8 hPa 0,0 l/m 3,1 km/h (1 Bft) W-NW 292 16,3 C 18,6 C 4,7 km/h (1 Bft)
07.08.2013 10:40 19,1 C 86 % 1016,8 hPa 0,0 l/m 2,1 km/h (1 Bft) O-NO 67 16,7 C 19,5 C 1,9 km/h (1 Bft)
07.08.2013 10:45 19,7 C 87 % 1017,9 hPa 0,0 l/m 1,0 km/h (0 Bft) N 360 17,5 C 20,1 C 0,0 km/h (0 Bft)
07.08.2013 10:50 19,5 C 87 % 1017,9 hPa 0,0 l/m 1,8 km/h (1 Bft) N-NW 337 17,3 C 20,6 C 2,9 km/h (1 Bft)
07.08.2013 10:55 19,6 C 86 % 1017,9 hPa 0,0 l/m 1,9 km/h (1 Bft) N 360 17,2 C 20,7 C 0,0 km/h (0 Bft)
07.08.2013 11:00 20,0 C 86 % 1017,9 hPa 0,0 l/m 1,4 km/h (1 Bft) S 180 17,6 C 21,0 C 3,1 km/h (1 Bft)
07.08.2013 11:05 20,2 C 86 % 1018,2 hPa 0,0 l/m 1,9 km/h (1 Bft) S 180 17,8 C 21,3 C 3,4 km/h (1 Bft)
07.08.2013 11:10 20,6 C 85 % 1018,2 hPa 0,0 l/m 2,6 km/h (1 Bft) S 180 18,0 C 21,6 C 3,1 km/h (1 Bft)
07.08.2013 11:15 21,1 C 84 % 1018,2 hPa 0,0 l/m 1,9 km/h (1 Bft) W-SW 247 18,3 C 22,0 C 0,0 km/h (0 Bft)
07.08.2013 11:20 21,8 C 84 % 1018,2 hPa 0,0 l/m 1,1 km/h (1 Bft) W-SW 247 19,0 C 22,9 C 0,0 km/h (0 Bft)
07.08.2013 11:25 23,2 C 81 % 1018,1 hPa 0,0 l/m 1,0 km/h (0 Bft) N-NW 337 19,8 C 23,7 C 1,6 km/h (1 Bft)
07.08.2013 11:30 22,8 C 79 % 1018,1 hPa 0,0 l/m 1,3 km/h (1 Bft) N 360 19,0 C 24,5 C 0,0 km/h (0 Bft)
07.08.2013 11:35 23,9 C 76 % 1018,1 hPa 0,0 l/m 2,4 km/h (1 Bft) W-NW 292 19,4 C 25,1 C 4,3 km/h (1 Bft)
07.08.2013 11:40 24,1 C 69 % 1018,1 hPa 0,0 l/m 3,4 km/h (1 Bft) N-NW 337 18,0 C 25,1 C 3,7 km/h (1 Bft)
07.08.2013 11:45 25,2 C 68 % 1017,8 hPa 0,0 l/m 3,5 km/h (1 Bft) N-NO 22 18,9 C 25,2 C 1,9 km/h (1 Bft)
07.08.2013 11:50 25,9 C 68 % 1017,8 hPa 0,0 l/m 2,7 km/h (1 Bft) N-NO 22 19,5 C 25,7 C 2,1 km/h (1 Bft)
07.08.2013 11:55 25,7 C 62 % 1017,8 hPa 0,0 l/m 3,4 km/h (1 Bft) W 270 17,9 C 25,8 C 7,1 km/h (2 Bft)
07.08.2013 12:00 26,4 C 57 % 1017,8 hPa 0,0 l/m 4,8 km/h (1 Bft) W 270 17,2 C 25,6 C 6,0 km/h (2 Bft)
07.08.2013 12:05 26,9 C 56 % 1017,9 hPa 0,0 l/m 4,7 km/h (1 Bft) W 270 17,4 C 26,0 C 3,9 km/h (1 Bft)
07.08.2013 12:10 27,1 C 53 % 1017,9 hPa 0,0 l/m 4,2 km/h (1 Bft) W-NW 292 16,7 C 26,7 C 5,1 km/h (1 Bft)
07.08.2013 12:15 26,9 C 53 % 1017,9 hPa 0,0 l/m 4,2 km/h (1 Bft) N-NW 337 16,5 C 26,9 C 3,9 km/h (1 Bft)
07.08.2013 12:20 26,8 C 54 % 1017,9 hPa 0,0 l/m 4,8 km/h (1 Bft) N-NW 337 16,7 C 27,4 C 9,8 km/h (2 Bft)
07.08.2013 12:25 27,2 C 53 % 1017,8 hPa 0,0 l/m 5,6 km/h (1 Bft) W-NW 292 16,8 C 27,2 C 6,4 km/h (2 Bft)
07.08.2013 12:30 26,8 C 54 % 1017,8 hPa 0,0 l/m 6,8 km/h (2 Bft) W-NW 292 16,7 C 26,8 C 7,7 km/h (2 Bft)
07.08.2013 12:35 26,7 C 53 % 1017,8 hPa 0,0 l/m 6,9 km/h (2 Bft) NW 315 16,3 C 26,7 C 7,4 km/h (2 Bft)
07.08.2013 12:40 26,6 C 53 % 1017,8 hPa 0,0 l/m 5,5 km/h (1 Bft) W-NW 292 16,2 C 27,3 C 4,8 km/h (1 Bft)
07.08.2013 12:45 26,8 C 55 % 1017,9 hPa 0,0 l/m 4,2 km/h (1 Bft) W-NW 292 17,0 C 27,8 C 5,1 km/h (1 Bft)
07.08.2013 12:50 26,6 C 56 % 1017,9 hPa 0,0 l/m 4,3 km/h (1 Bft) N-NW 337 17,1 C 28,2 C 9,3 km/h (2 Bft)
07.08.2013 12:55 26,8 C 54 % 1017,9 hPa 0,0 l/m 5,5 km/h (1 Bft) NW 315 16,7 C 28,3 C 12,1 km/h (2 Bft)
07.08.2013 13:00 26,2 C 55 % 1017,9 hPa 0,0 l/m 7,1 km/h (2 Bft) W 270 16,4 C 27,4 C 9,7 km/h (2 Bft)
07.08.2013 13:05 25,6 C 59 % 1017,9 hPa 0,0 l/m 7,1 km/h (2 Bft) N-NW 337 17,0 C 27,0 C 6,8 km/h (2 Bft)
07.08.2013 13:10 25,5 C 59 % 1017,9 hPa 0,0 l/m 6,9 km/h (2 Bft) N-NO 22 16,9 C 26,8 C 8,2 km/h (2 Bft)
07.08.2013 13:15 25,4 C 59 % 1017,9 hPa 0,0 l/m 7,4 km/h (2 Bft) N-NW 337 16,8 C 26,6 C 13,2 km/h (3 Bft)
07.08.2013 13:20 25,7 C 59 % 1017,9 hPa 0,0 l/m 8,4 km/h (2 Bft) N 360 17,1 C 26,4 C 10,0 km/h (2 Bft)
07.08.2013 13:25 25,9 C 59 % 1017,7 hPa 0,0 l/m 8,5 km/h (2 Bft) NW 315 17,3 C 26,7 C 10,3 km/h (2 Bft)
07.08.2013 13:30 25,9 C 59 % 1017,7 hPa 0,0 l/m 7,6 km/h (2 Bft) NW 315 17,3 C 27,0 C 5,3 km/h (1 Bft)
07.08.2013 13:35 26,0 C 58 % 1017,7 hPa 0,0 l/m 7,7 km/h (2 Bft) NO 45 17,1 C 27,2 C 8,9 km/h (2 Bft)
07.08.2013 13:40 25,9 C 59 % 1017,7 hPa 0,0 l/m 7,4 km/h (2 Bft) N-NW 337 17,3 C 27,2 C 7,6 km/h (2 Bft)
07.08.2013 13:45 26,0 C 59 % 1017,6 hPa 0,0 l/m 7,6 km/h (2 Bft) N 360 17,4 C 27,1 C 12,4 km/h (3 Bft)
07.08.2013 13:50 26,3 C 57 % 1017,6 hPa 0,0 l/m 7,7 km/h (2 Bft) N 360 17,1 C 27,2 C 12,1 km/h (2 Bft)
07.08.2013 13:55 26,0 C 57 % 1017,6 hPa 0,0 l/m 9,0 km/h (2 Bft) N-NW 337 16,8 C 27,0 C 7,2 km/h (2 Bft)
07.08.2013 14:00 26,5 C 56 % 1017,6 hPa 0,0 l/m 8,9 km/h (2 Bft) W-NW 292 17,0 C 27,2 C 7,4 km/h (2 Bft)
07.08.2013 14:05 26,2 C 57 % 1017,6 hPa 0,0 l/m 8,0 km/h (2 Bft) N-NW 337 17,0 C 27,4 C 10,8 km/h (2 Bft)
07.08.2013 14:10 26,4 C 56 % 1017,6 hPa 0,0 l/m 7,4 km/h (2 Bft) N 360 16,9 C 27,7 C 11,3 km/h (2 Bft)
07.08.2013 14:15 25,9 C 59 % 1017,6 hPa 0,0 l/m 7,7 km/h (2 Bft) S-SW 202 17,3 C 27,4 C 4,5 km/h (1 Bft)
07.08.2013 14:20 26,5 C 57 % 1017,6 hPa 0,0 l/m 7,6 km/h (2 Bft) N-NW 337 17,3 C 27,8 C 10,0 km/h (2 Bft)
07.08.2013 14:25 26,6 C 59 % 1017,8 hPa 0,0 l/m 6,4 km/h (2 Bft) N-NW 337 17,9 C 28,2 C 10,8 km/h (2 Bft)
07.08.2013 14:30 26,6 C 59 % 1017,8 hPa 0,0 l/m 6,1 km/h (2 Bft) S 180 17,9 C 28,2 C 2,6 km/h (1 Bft)
07.08.2013 14:35 26,7 C 59 % 1017,8 hPa 0,0 l/m 5,5 km/h (1 Bft) W-NW 292 18,0 C 28,4 C 5,0 km/h (1 Bft)
07.08.2013 14:40 26,1 C 60 % 1017,8 hPa 0,0 l/m 6,1 km/h (2 Bft) N-NW 337 17,7 C 28,2 C 5,0 km/h (1 Bft)
07.08.2013 14:45 26,2 C 60 % 1017,5 hPa 0,0 l/m 6,0 km/h (2 Bft) NW 315 17,8 C 28,2 C 4,5 km/h (1 Bft)
07.08.2013 14:50 26,2 C 60 % 1017,5 hPa 0,0 l/m 4,3 km/h (1 Bft) N-NW 337 17,8 C 28,2 C 3,2 km/h (1 Bft)
07.08.2013 14:55 26,9 C 60 % 1017,5 hPa 0,0 l/m 3,4 km/h (1 Bft) W-SW 247 18,5 C 28,4 C 4,3 km/h (1 Bft)
07.08.2013 15:00 26,9 C 59 % 1017,5 hPa 0,0 l/m 2,3 km/h (1 Bft) W-NW 292 18,2 C 29,2 C 6,4 km/h (2 Bft)
07.08.2013 15:05 27,4 C 58 % 1017,8 hPa 0,0 l/m 2,3 km/h (1 Bft) O-SO 112 18,4 C 29,4 C 3,4 km/h (1 Bft)
07.08.2013 15:10 27,6 C 56 % 1017,8 hPa 0,0 l/m 1,6 km/h (1 Bft) W 270 18,0 C 30,7 C 1,6 km/h (1 Bft)
07.08.2013 15:15 27,3 C 56 % 1017,8 hPa 0,0 l/m 1,3 km/h (1 Bft) W-NW 292 17,7 C 30,8 C 2,3 km/h (1 Bft)
07.08.2013 15:20 27,0 C 57 % 1017,8 hPa 0,0 l/m 1,3 km/h (1 Bft) S-SW 202 17,7 C 30,3 C 3,2 km/h (1 Bft)
07.08.2013 15:25 26,7 C 58 % 1018,1 hPa 0,0 l/m 1,8 km/h (1 Bft) S 180 17,7 C 29,6 C 3,9 km/h (1 Bft)
07.08.2013 15:30 26,6 C 60 % 1018,1 hPa 0,0 l/m 2,6 km/h (1 Bft) W-SW 247 18,2 C 29,0 C 6,3 km/h (2 Bft)
07.08.2013 15:35 26,3 C 61 % 1018,1 hPa 0,0 l/m 4,0 km/h (1 Bft) S-SW 202 18,2 C 28,3 C 15,4 km/h (3 Bft)
07.08.2013 15:40 25,9 C 65 % 1018,1 hPa 0,0 l/m 5,5 km/h (1 Bft) S-SW 202 18,8 C 27,4 C 2,6 km/h (1 Bft)
07.08.2013 15:45 25,7 C 64 % 1018,2 hPa 0,0 l/m 5,3 km/h (1 Bft) S 180 18,4 C 26,9 C 5,5 km/h (1 Bft)
07.08.2013 15:50 25,3 C 64 % 1018,2 hPa 0,0 l/m 4,3 km/h (1 Bft) W 270 18,0 C 26,5 C 2,9 km/h (1 Bft)
07.08.2013 15:55 25,2 C 65 % 1018,2 hPa 0,0 l/m 4,3 km/h (1 Bft) S-SW 202 18,1 C 26,1 C 6,3 km/h (2 Bft)
07.08.2013 16:00 24,8 C 66 % 1018,2 hPa 0,0 l/m 4,2 km/h (1 Bft) SO 135 18,0 C 25,7 C 3,1 km/h (1 Bft)
07.08.2013 16:05 24,7 C 67 % 1017,5 hPa 0,0 l/m 3,4 km/h (1 Bft) S 180 18,1 C 25,6 C 2,4 km/h (1 Bft)
07.08.2013 16:10 24,3 C 67 % 1017,5 hPa 0,0 l/m 3,2 km/h (1 Bft) W-SW 247 17,8 C 25,2 C 3,7 km/h (1 Bft)
07.08.2013 16:15 24,1 C 67 % 1017,5 hPa 0,0 l/m 3,5 km/h (1 Bft) O-SO 112 17,6 C 24,9 C 0,0 km/h (0 Bft)
07.08.2013 16:20 23,8 C 69 % 1017,5 hPa 0,0 l/m 3,1 km/h (1 Bft) S 180 17,8 C 24,7 C 6,3 km/h (2 Bft)
07.08.2013 16:25 23,6 C 69 % 1017,2 hPa 0,0 l/m 2,6 km/h (1 Bft) S 180 17,6 C 24,4 C 2,7 km/h (1 Bft)
07.08.2013 16:30 23,4 C 69 % 1017,2 hPa 0,0 l/m 3,5 km/h (1 Bft) S 180 17,4 C 24,2 C 5,8 km/h (2 Bft)
07.08.2013 16:35 23,3 C 70 % 1017,2 hPa 0,0 l/m 3,4 km/h (1 Bft) SO 135 17,5 C 23,9 C 2,9 km/h (1 Bft)
07.08.2013 16:40 22,9 C 72 % 1017,2 hPa 0,0 l/m 1,9 km/h (1 Bft) SO 135 17,6 C 23,9 C 0,0 km/h (0 Bft)
07.08.2013 16:45 22,7 C 73 % 1017,3 hPa 0,0 l/m 1,0 km/h (0 Bft) NO 45 17,6 C 23,9 C 2,3 km/h (1 Bft)
07.08.2013 16:50 22,6 C 73 % 1017,3 hPa 0,0 l/m 1,3 km/h (1 Bft) O 90 17,5 C 23,7 C 0,0 km/h (0 Bft)
07.08.2013 16:55 22,5 C 74 % 1017,3 hPa 0,0 l/m 1,1 km/h (1 Bft) NO 45 17,6 C 23,6 C 0,0 km/h (0 Bft)
07.08.2013 17:00 22,6 C 74 % 1017,3 hPa 0,0 l/m 0,6 km/h (0 Bft) NO 45 17,7 C 23,6 C 0,0 km/h (0 Bft)
07.08.2013 17:05 22,5 C 75 % 1017,1 hPa 0,0 l/m 0,8 km/h (0 Bft) O-NO 67 17,8 C 23,6 C 2,1 km/h (1 Bft)
07.08.2013 17:10 22,4 C 75 % 1017,1 hPa 0,0 l/m 1,3 km/h (1 Bft) O-NO 67 17,7 C 23,4 C 2,3 km/h (1 Bft)
07.08.2013 17:15 22,4 C 76 % 1017,1 hPa 0,0 l/m 1,8 km/h (1 Bft) O 90 18,0 C 23,4 C 2,3 km/h (1 Bft)
07.08.2013 17:20 22,5 C 76 % 1017,1 hPa 0,0 l/m 1,1 km/h (1 Bft) O 90 18,0 C 23,4 C 1,9 km/h (1 Bft)
07.08.2013 17:25 22,5 C 76 % 1016,9 hPa 0,0 l/m 0,6 km/h (0 Bft) O 90 18,0 C 23,4 C 0,0 km/h (0 Bft)
07.08.2013 17:30 22,5 C 76 % 1016,9 hPa 0,0 l/m 0,2 km/h (0 Bft) NO 45 18,0 C 23,5 C 0,0 km/h (0 Bft)
07.08.2013 17:35 22,5 C 76 % 1016,9 hPa 0,0 l/m 0,3 km/h (0 Bft) NO 45 18,0 C 23,4 C 1,6 km/h (1 Bft)
07.08.2013 17:40 22,6 C 75 % 1016,9 hPa 0,0 l/m 0,3 km/h (0 Bft) O-NO 67 17,9 C 23,4 C 0,0 km/h (0 Bft)
07.08.2013 17:45 22,5 C 75 % 1016,9 hPa 0,0 l/m 0,2 km/h (0 Bft) O-NO 67 17,8 C 23,4 C 0,0 km/h (0 Bft)
07.08.2013 17:50 22,5 C 75 % 1016,9 hPa 0,0 l/m 0,5 km/h (0 Bft) NO 45 17,8 C 23,3 C 0,0 km/h (0 Bft)
07.08.2013 17:55 22,5 C 74 % 1016,9 hPa 0,0 l/m 0,5 km/h (0 Bft) O-SO 112 17,6 C 23,3 C 0,0 km/h (0 Bft)
07.08.2013 18:00 22,2 C 75 % 1016,9 hPa 0,0 l/m 0,3 km/h (0 Bft) NO 45 17,5 C 23,2 C 2,1 km/h (1 Bft)
07.08.2013 18:05 22,1 C 76 % 1016,6 hPa 0,0 l/m 1,1 km/h (1 Bft) NO 45 17,7 C 22,9 C 0,0 km/h (0 Bft)
07.08.2013 18:10 21,9 C 77 % 1016,6 hPa 0,0 l/m 1,9 km/h (1 Bft) O-SO 112 17,7 C 22,6 C 0,0 km/h (0 Bft)
07.08.2013 18:15 21,7 C 78 % 1016,6 hPa 0,0 l/m 1,1 km/h (1 Bft) O 90 17,7 C 22,4 C 0,0 km/h (0 Bft)
07.08.2013 18:20 21,6 C 78 % 1016,6 hPa 0,0 l/m 0,6 km/h (0 Bft) O-SO 112 17,6 C 22,2 C 0,0 km/h (0 Bft)
07.08.2013 18:25 21,6 C 78 % 1016,6 hPa 0,0 l/m 0,5 km/h (0 Bft) N-NO 22 17,6 C 22,2 C 1,6 km/h (1 Bft)
07.08.2013 18:30 21,6 C 79 % 1016,6 hPa 0,0 l/m 0,6 km/h (0 Bft) O 90 17,8 C 22,1 C 1,6 km/h (1 Bft)
07.08.2013 18:35 21,8 C 78 % 1016,6 hPa 0,0 l/m 0,6 km/h (0 Bft) O 90 17,8 C 22,2 C 1,9 km/h (1 Bft)
07.08.2013 18:40 22,2 C 78 % 1016,6 hPa 0,0 l/m 1,0 km/h (0 Bft) NO 45 18,2 C 22,6 C 0,0 km/h (0 Bft)
07.08.2013 18:45 22,4 C 78 % 1016,2 hPa 0,0 l/m 1,3 km/h (1 Bft) N-NO 22 18,4 C 22,9 C 0,0 km/h (0 Bft)
07.08.2013 18:50 22,6 C 78 % 1016,2 hPa 0,0 l/m 0,5 km/h (0 Bft) N-NO 22 18,6 C 23,4 C 0,0 km/h (0 Bft)
07.08.2013 18:55 22,6 C 78 % 1016,2 hPa 0,0 l/m 0,3 km/h (0 Bft) O-NO 67 18,6 C 23,6 C 0,0 km/h (0 Bft)
07.08.2013 19:00 22,7 C 77 % 1016,2 hPa 0,0 l/m 0,0 km/h (0 Bft) N 360 18,5 C 23,8 C 0,0 km/h (0 Bft)
07.08.2013 19:05 22,6 C 77 % 1016,4 hPa 0,0 l/m 0,0 km/h (0 Bft) O 90 18,4 C 23,7 C 0,0 km/h (0 Bft)
07.08.2013 19:10 22,5 C 77 % 1016,4 hPa 0,0 l/m 0,0 km/h (0 Bft) O 90 18,3 C 23,6 C 2,3 km/h (1 Bft)
07.08.2013 19:15 22,2 C 77 % 1016,4 hPa 0,0 l/m 0,6 km/h (0 Bft) NO 45 18,0 C 23,4 C 1,9 km/h (1 Bft)
07.08.2013 19:20 22,1 C 77 % 1016,4 hPa 0,0 l/m 1,1 km/h (1 Bft) N 360 17,9 C 23,0 C 0,0 km/h (0 Bft)
07.08.2013 19:25 22,0 C 77 % 1015,9 hPa 0,0 l/m 1,0 km/h (0 Bft) O 90 17,8 C 22,9 C 2,4 km/h (1 Bft)
07.08.2013 19:30 21,8 C 78 % 1015,9 hPa 0,0 l/m 1,1 km/h (1 Bft) SO 135 17,8 C 22,7 C 0,0 km/h (0 Bft)
07.08.2013 19:35 21,8 C 79 % 1015,9 hPa 0,0 l/m 1,1 km/h (1 Bft) O 90 18,0 C 22,8 C 2,4 km/h (1 Bft)
07.08.2013 19:40 21,5 C 80 % 1015,9 hPa 0,0 l/m 1,1 km/h (1 Bft) N-NO 22 17,9 C 22,8 C 0,0 km/h (0 Bft)
07.08.2013 19:45 21,7 C 79 % 1015,6 hPa 0,0 l/m 1,6 km/h (1 Bft) S-SO 157 17,9 C 22,7 C 3,5 km/h (1 Bft)
07.08.2013 19:50 21,4 C 81 % 1015,6 hPa 0,0 l/m 1,4 km/h (1 Bft) N 360 18,0 C 22,7 C 3,9 km/h (1 Bft)
07.08.2013 19:55 21,5 C 80 % 1015,6 hPa 0,0 l/m 1,4 km/h (1 Bft) S 180 17,9 C 22,8 C 1,6 km/h (1 Bft)
07.08.2013 20:00 21,3 C 81 % 1015,6 hPa 0,0 l/m 1,4 km/h (1 Bft) N-NO 22 17,9 C 22,6 C 4,8 km/h (1 Bft)
07.08.2013 20:05 21,2 C 80 % 1015,6 hPa 0,0 l/m 1,9 km/h (1 Bft) NO 45 17,6 C 22,4 C 3,5 km/h (1 Bft)
07.08.2013 20:10 20,8 C 80 % 1015,6 hPa 0,0 l/m 1,9 km/h (1 Bft) N-NW 337 17,2 C 21,9 C 2,4 km/h (1 Bft)
07.08.2013 20:15 20,6 C 80 % 1015,6 hPa 0,0 l/m 0,6 km/h (0 Bft) NO 45 17,0 C 21,6 C 0,0 km/h (0 Bft)
07.08.2013 20:20 20,6 C 81 % 1015,6 hPa 0,0 l/m 0,2 km/h (0 Bft) NO 45 17,2 C 21,1 C 0,0 km/h (0 Bft)
07.08.2013 20:25 20,7 C 82 % 1015,7 hPa 0,0 l/m 1,6 km/h (1 Bft) O-SO 112 17,5 C 20,9 C 3,7 km/h (1 Bft)
07.08.2013 20:30 20,2 C 82 % 1015,7 hPa 0,0 l/m 2,6 km/h (1 Bft) O-SO 112 17,0 C 20,6 C 2,1 km/h (1 Bft)
07.08.2013 20:35 20,0 C 82 % 1015,7 hPa 0,0 l/m 1,6 km/h (1 Bft) N-NO 22 16,8 C 20,4 C 1,6 km/h (1 Bft)
07.08.2013 20:40 19,8 C 83 % 1015,7 hPa 0,0 l/m 0,8 km/h (0 Bft) O-NO 67 16,8 C 20,0 C 0,0 km/h (0 Bft)
07.08.2013 20:45 19,8 C 84 % 1015,6 hPa 0,0 l/m 0,5 km/h (0 Bft) O-SO 112 17,0 C 19,8 C 0,0 km/h (0 Bft)
07.08.2013 20:50 19,6 C 84 % 1015,6 hPa 0,0 l/m 0,0 km/h (0 Bft) O 90 16,8 C 19,6 C 0,0 km/h (0 Bft)
07.08.2013 20:55 19,8 C 85 % 1015,6 hPa 0,0 l/m 0,8 km/h (0 Bft) O 90 17,2 C 19,5 C 2,9 km/h (1 Bft)
07.08.2013 21:00 19,6 C 85 % 1015,6 hPa 0,0 l/m 1,9 km/h (1 Bft) O 90 17,0 C 19,4 C 0,0 km/h (0 Bft)
07.08.2013 21:05 19,4 C 85 % 1015,8 hPa 0,0 l/m 2,3 km/h (1 Bft) S-SO 157 16,8 C 19,3 C 3,7 km/h (1 Bft)
07.08.2013 21:10 19,2 C 85 % 1015,8 hPa 0,0 l/m 1,9 km/h (1 Bft) N-NO 22 16,6 C 19,3 C 0,0 km/h (0 Bft)
07.08.2013 21:15 19,1 C 86 % 1015,8 hPa 0,0 l/m 2,3 km/h (1 Bft) W-SW 247 16,7 C 19,1 C 2,7 km/h (1 Bft)
07.08.2013 21:20 19,1 C 86 % 1015,8 hPa 0,0 l/m 2,3 km/h (1 Bft) O-SO 112 16,7 C 18,9 C 1,8 km/h (1 Bft)
07.08.2013 21:25 19,0 C 86 % 1016,2 hPa 0,0 l/m 2,4 km/h (1 Bft) S 180 16,6 C 18,8 C 4,2 km/h (1 Bft)
07.08.2013 21:30 19,1 C 86 % 1016,2 hPa 0,0 l/m 3,5 km/h (1 Bft) SO 135 16,7 C 19,1 C 6,1 km/h (2 Bft)
07.08.2013 21:35 19,1 C 86 % 1016,2 hPa 0,0 l/m 4,5 km/h (1 Bft) S-SO 157 16,7 C 19,2 C 5,5 km/h (1 Bft)
07.08.2013 21:40 19,0 C 86 % 1016,2 hPa 0,0 l/m 4,0 km/h (1 Bft) S 180 16,6 C 19,3 C 4,8 km/h (1 Bft)
07.08.2013 21:45 19,0 C 86 % 1016,3 hPa 0,0 l/m 3,9 km/h (1 Bft) S-SW 202 16,6 C 19,3 C 3,1 km/h (1 Bft)
07.08.2013 21:50 19,0 C 86 % 1016,3 hPa 0,0 l/m 3,4 km/h (1 Bft) O-SO 112 16,6 C 19,3 C 4,8 km/h (1 Bft)
07.08.2013 21:55 19,1 C 86 % 1016,3 hPa 0,0 l/m 2,7 km/h (1 Bft) O 90 16,7 C 19,3 C 2,4 km/h (1 Bft)
07.08.2013 22:00 19,1 C 86 % 1016,3 hPa 0,0 l/m 1,9 km/h (1 Bft) S 180 16,7 C 19,3 C 0,0 km/h (0 Bft)
07.08.2013 22:05 19,0 C 86 % 1016,5 hPa 0,0 l/m 1,3 km/h (1 Bft) O-SO 112 16,6 C 19,2 C 0,0 km/h (0 Bft)
07.08.2013 22:10 19,1 C 86 % 1016,5 hPa 0,0 l/m 1,3 km/h (1 Bft) S-SO 157 16,7 C 19,2 C 0,0 km/h (0 Bft)
07.08.2013 22:15 19,1 C 86 % 1016,5 hPa 0,0 l/m 1,9 km/h (1 Bft) O 90 16,7 C 19,1 C 2,3 km/h (1 Bft)
07.08.2013 22:20 19,0 C 86 % 1016,5 hPa 0,0 l/m 2,3 km/h (1 Bft) O-SO 112 16,6 C 19,1 C 6,1 km/h (2 Bft)
07.08.2013 22:25 19,0 C 86 % 1016,6 hPa 0,0 l/m 2,1 km/h (1 Bft) S-SO 157 16,6 C 19,1 C 2,9 km/h (1 Bft)
07.08.2013 22:30 19,0 C 86 % 1016,6 hPa 0,0 l/m 2,3 km/h (1 Bft) SO 135 16,6 C 19,1 C 2,6 km/h (1 Bft)
07.08.2013 22:35 18,9 C 86 % 1016,6 hPa 0,0 l/m 2,4 km/h (1 Bft) SO 135 16,5 C 19,1 C 4,5 km/h (1 Bft)
07.08.2013 22:40 19,1 C 86 % 1016,6 hPa 0,0 l/m 2,7 km/h (1 Bft) SO 135 16,7 C 19,2 C 6,4 km/h (2 Bft)
07.08.2013 22:45 19,1 C 86 % 1016,9 hPa 0,0 l/m 2,9 km/h (1 Bft) SO 135 16,7 C 19,2 C 2,7 km/h (1 Bft)
07.08.2013 22:50 19,0 C 86 % 1016,9 hPa 0,0 l/m 2,9 km/h (1 Bft) SO 135 16,6 C 19,2 C 2,9 km/h (1 Bft)
07.08.2013 22:55 19,1 C 86 % 1016,9 hPa 0,0 l/m 3,9 km/h (1 Bft) SO 135 16,7 C 19,3 C 6,6 km/h (2 Bft)
07.08.2013 23:00 19,2 C 86 % 1016,9 hPa 0,0 l/m 4,8 km/h (1 Bft) S-SO 157 16,8 C 19,6 C 5,1 km/h (1 Bft)
07.08.2013 23:05 19,3 C 86 % 1017,1 hPa 0,0 l/m 4,5 km/h (1 Bft) S 180 16,9 C 19,7 C 7,6 km/h (2 Bft)
07.08.2013 23:10 19,4 C 86 % 1017,1 hPa 0,0 l/m 4,0 km/h (1 Bft) S 180 17,0 C 19,7 C 3,9 km/h (1 Bft)
07.08.2013 23:15 19,5 C 86 % 1017,1 hPa 0,0 l/m 4,2 km/h (1 Bft) S-SO 157 17,1 C 19,7 C 4,8 km/h (1 Bft)
07.08.2013 23:20 19,6 C 86 % 1017,1 hPa 0,0 l/m 5,3 km/h (1 Bft) SO 135 17,2 C 19,9 C 6,6 km/h (2 Bft)
07.08.2013 23:25 19,6 C 86 % 1017,2 hPa 0,0 l/m 5,5 km/h (1 Bft) SO 135 17,2 C 19,9 C 4,7 km/h (1 Bft)
07.08.2013 23:30 19,7 C 86 % 1017,2 hPa 0,0 l/m 4,7 km/h (1 Bft) S 180 17,3 C 19,9 C 3,5 km/h (1 Bft)
07.08.2013 23:35 19,6 C 85 % 1017,2 hPa 0,0 l/m 4,2 km/h (1 Bft) S 180 17,0 C 19,9 C 6,4 km/h (2 Bft)
07.08.2013 23:40 19,6 C 85 % 1017,2 hPa 0,0 l/m 3,4 km/h (1 Bft) SO 135 17,0 C 19,9 C 4,8 km/h (1 Bft)
07.08.2013 23:45 19,5 C 85 % 1017,6 hPa 0,0 l/m 3,9 km/h (1 Bft) SO 135 16,9 C 19,8 C 6,9 km/h (2 Bft)
07.08.2013 23:50 19,1 C 85 % 1017,6 hPa 0,0 l/m 4,0 km/h (1 Bft) O-SO 112 16,5 C 19,6 C 5,6 km/h (1 Bft)
07.08.2013 23:55 19,1 C 85 % 1017,6 hPa 0,0 l/m 2,4 km/h (1 Bft) S-SO 157 16,5 C 19,4 C 0,0 km/h (0 Bft)
_ Min-Zeit 05:45 12:40 21:00 - 20:50 - - 05:45 05:55 23:55
Minimum _ 13,6 C 53 % 1015,6 hPa - 0,0 km/h (0 Bft) - - 12,8 C 13,7 C 0,0 km/h (0 Bft)
_ Max-Zeit 15:10 07:50 00:00 23:55 09:00 - - 11:25 15:15 10:10
Maximum _ 27,6 C 95 % 1020,6 hPa 0,0 l/m 14,3 km/h
SW (3 Bft)
- - 19,8 C 30,8 C 31,5 km/h
N-NO (5 Bft)
Durchschnitt _ 19,3 C 82 % 1017,4 hPa #0,0 l/m 2,7 km/h (1 Bft) S - 15,9 C 19,8 C 3,5 km/h (1 Bft)